RH
70 67 60 53 46 39 40 64 89 91 92 99 99 99 98 96 98 100 100 100 100 100 100 100 100 100 100 99 99 100 100 99 100 99 99 100 99 90 81 83 87 86 85 83 81 76 68 60 51 42 36 34 34 33 32 32 33 33 30 25 23 22 21 21 21 22 23 24 25 26 28 28 28 27 25 23 23 22 21 17 13 9 8 7 9
67 65 64 60 54 49 41 51 81 98 98 98 100 101 99 98 98 99 100 100 100 100 100 100 100 99 100 96 93 97 99 98 95 94 95 97 98 95 89 87 88 88 86 85 84 81 74 68 60 50 42 35 32 33 33 34 34 33 32 27 24 23 23 22 21 22 24 25 27 28 29 30 29 28 26 24 24 24 21 16 12 10 8 8 10
67 66 67 66 62 58 52 49 62 85 99 101 99 99 100 99 99 100 100 100 100 100 100 100 100 100 99 92 85 89 95 94 89 87 91 95 95 94 93 90 88 88 88 87 87 86 81 75 69 60 51 41 34 32 32 34 36 35 33 29 26 26 26 24 23 24 27 30 32 33 34 34 33 30 26 25 25 23 19 14 12 11 10 11 13
69 69 67 67 68 65 62 58 55 65 86 99 101 100 100 99 100 100 100 100 100 100 101 99 99 100 97 90 86 90 94 92 91 89 90 96 97 94 94 93 90 89 88 89 89 88 87 82 76 70 61 52 42 35 32 33 34 34 33 32 29 27 25 22 22 25 29 33 35 37 37 35 35 32 27 26 25 23 19 15 14 13 13 15 17
71 72 71 66 66 67 68 67 62 59 67 80 92 99 100 99 100 100 100 100 100 100 100 98 99 100 98 95 93 95 95 95 96 94 91 95 97 93 93 94 91 90 89 91 91 88 88 88 82 77 70 63 53 42 35 32 31 31 31 31 28 24 23 21 21 23 25 28 34 38 37 33 32 31 28 27 26 24 21 17 15 15 16 19 21
74 74 74 68 61 61 63 67 70 67 65 68 74 86 98 100 99 99 100 100 100 100 99 99 99 100 100 99 98 97 97 97 96 94 91 90 91 90 93 95 92 91 91 91 91 87 88 89 86 82 77 72 65 55 44 37 34 31 29 28 24 22 25 25 22 22 23 25 31 34 33 32 31 29 28 29 29 25 21 19 17 17 18 20 21
78 76 74 69 60 55 55 58 66 70 72 72 69 72 85 96 100 100 99 99 100 101 100 99 99 99 99 99 100 98 99 98 90 89 91 86 88 92 91 93 94 93 91 92 92 88 88 90 88 86 82 78 75 67 57 47 38 32 28 28 25 22 26 26 21 21 24 26 28 30 30 32 30 28 28 29 29 27 24 22 20 19 19 20 22
81 79 75 69 59 51 49 49 54 60 64 69 71 71 75 83 93 99 100 99 98 99 99 99 99 98 98 98 100 98 99 99 89 85 88 83 88 95 90 88 93 92 88 91 95 93 89 89 88 87 85 82 81 78 71 61 48 38 32 30 29 28 27 25 21 22 25 24 26 29 32 33 32 30 28 28 30 29 27 25 23 21 22 23 23
85 82 77 73 66 54 47 44 45 49 53 58 64 69 73 76 82 90 97 99 99 98 98 99 99 99 99 99 99 97 94 94 90 90 92 86 86 94 93 90 90 89 87 88 92 93 89 87 87 88 87 84 82 82 80 75 64 50 40 34 32 31 27 25 26 24 23 24 27 28 31 35 35 34 31 30 32 31 29 28 24 22 24 25 24
88 85 76 71 69 60 49 43 41 41 43 48 52 57 65 70 75 80 87 94 99 100 99 98 98 98 99 100 100 98 95 93 93 96 99 97 93 92 94 94 89 88 89 89 90 91 89 87 87 87 87 85 83 83 82 81 77 66 52 41 34 32 29 27 28 26 24 26 29 29 31 34 35 34 31 31 33 33 32 30 27 23 22 23 23
88 90 82 70 64 59 52 47 44 40 38 39 41 45 51 58 66 71 77 84 90 95 99 99 99 98 97 97 98 99 99 98 98 99 99 100 98 95 93 93 92 89 88 89 89 91 91 89 88 85 84 84 82 82 83 82 81 78 67 53 42 36 33 29 28 27 26 28 30 30 32 32 33 32 29 29 31 32 33 33 31 25 22 24 23
86 91 88 75 66 62 58 54 49 45 41 37 35 36 40 45 51 57 63 70 75 82 87 92 96 98 99 98 98 98 98 99 98 99 100 99 99 97 94 93 95 94 92 91 88 89 89 87 88 86 83 83 82 81 82 81 82 82 78 68 54 43 37 33 31 28 26 28 29 30 31 31 32 32 31 31 31 33 35 34 32 27 25 28 25
85 91 91 81 73 70 69 68 63 55 48 42 37 34 32 34 38 44 51 57 63 68 73 77 82 87 93 97 99 98 98 98 98 98 99 99 99 99 99 99 99 97 96 94 92 91 89 87 86 85 84 83 81 81 81 81 82 83 83 78 68 55 43 35 31 28 27 28 28 29 31 31 30 31 33 34 35 38 40 37 35 29 25 28 26
84 89 93 88 78 74 75 77 75 67 58 49 43 39 34 31 31 33 38 45 52 58 63 67 71 74 80 86 92 96 96 97 98 98 99 99 100 100 100 100 100 99 98 95 93 92 91 91 87 84 85 83 80 80 81 81 82 82 83 82 77 68 56 42 33 29 28 29 30 30 31 30 29 30 33 35 36 41 43 41 38 31 28 33 30
83 85 90 89 81 76 74 71 70 67 64 60 52 45 41 37 33 31 31 34 38 45 52 58 64 67 71 75 79 85 89 92 94 94 95 95 97 98 99 100 101 100 99 98 97 96 93 92 87 84 86 87 84 82 82 82 83 84 83 83 81 77 68 55 42 33 29 29 30 30 31 31 30 31 33 34 38 41 42 42 38 29 27 35 36
78 81 85 87 84 80 78 75 71 66 66 68 64 57 51 44 40 36 33 32 31 34 39 45 52 58 64 68 70 73 77 81 86 89 91 91 91 92 93 95 98 100 101 100 100 100 98 95 93 90 89 89 88 85 84 84 82 84 86 85 84 82 76 66 53 41 33 29 30 31 32 32 30 32 33 35 40 43 43 43 38 26 21 29 36
77 80 82 85 83 78 76 77 76 70 65 65 65 65 62 58 52 44 36 34 33 32 32 35 40 46 53 59 64 68 70 71 74 76 80 84 86 88 88 88 90 94 99 100 100 100 100 100 99 97 94 93 91 88 87 86 81 81 86 86 86 84 80 74 63 50 39 32 31 32 34 35 32 32 33 35 40 43 44 43 36 24 19 25 32
69 75 78 82 80 74 71 71 73 74 70 68 67 64 62 61 59 55 45 37 35 34 33 32 33 36 41 48 54 60 64 67 69 70 70 72 75 79 83 85 86 88 92 96 100 100 100 100 100 100 99 97 96 94 92 91 86 84 85 86 87 86 83 79 71 60 47 37 33 32 34 37 36 33 33 35 39 43 44 43 35 25 21 26 30
58 65 72 78 78 71 66 62 61 63 64 69 75 70 63 56 53 55 54 47 40 36 33 32 32 33 35 39 45 51 56 61 65 68 69 69 69 70 73 76 79 82 86 89 94 98 100 101 100 99 99 98 98 97 97 98 95 90 88 88 89 88 85 83 77 68 56 43 35 31 33 38 37 34 34 36 39 42 45 44 36 26 21 22 27
51 57 67 76 76 69 63 60 59 58 56 61 72 73 66 56 50 52 54 50 44 37 33 33 32 33 33 34 38 44 49 54 57 62 66 68 70 70 70 71 70 71 76 81 85 89 93 98 100 99 98 97 97 97 97 98 98 96 94 93 93 90 87 85 81 74 64 51 39 31 31 36 37 34 35 37 38 41 45 44 37 27 20 19 22
49 53 64 74 74 66 59 58 62 64 61 64 71 70 64 57 55 59 57 49 44 40 36 34 33 33 34 34 35 38 42 48 51 55 59 63 68 69 70 71 72 71 70 71 75 79 82 87 92 96 97 96 96 96 95 95 96 97 97 97 96 94 91 87 83 78 70 59 47 36 32 36 38 36 36 38 38 40 44 44 37 27 20 18 18
50 51 62 73 70 63 57 53 57 61 62 66 70 66 61 57 59 66 66 53 42 38 37 37 36 35 34 35 36 38 40 43 47 50 53 56 61 67 70 70 71 72 72 70 69 71 74 76 80 85 90 93 93 93 93 93 93 94 94 96 98 96 94 90 84 80 75 66 55 44 37 38 40 39 39 40 39 40 42 44 38 27 20 18 17
51 50 62 72 67 59 54 52 55 60 62 64 63 58 57 58 60 67 71 62 48 39 36 37 37 37 37 36 37 39 41 42 44 47 50 52 55 59 65 70 71 71 72 73 72 70 70 71 73 76 79 85 89 90 90 90 90 91 91 93 96 95 94 92 87 82 78 71 62 51 42 40 41 41 42 43 43 43 44 45 40 29 21 18 17
52 51 62 71 66 58 54 53 57 63 65 63 59 55 55 58 61 63 67 67 59 49 41 37 36 36 37 38 39 40 42 43 44 45 47 50 53 54 57 63 69 72 72 72 73 74 73 72 72 73 74 77 81 85 88 89 89 89 88 89 91 90 90 90 87 83 79 74 67 58 47 41 43 44 44 46 47 46 48 48 42 32 24 21 19
53 51 58 65 63 58 55 56 61 67 68 64 60 58 57 60 64 65 65 64 62 60 53 44 39 38 36 37 40 41 43 46 46 45 45 46 49 53 55 57 61 68 74 76 74 74 75 76 74 73 74 75 76 79 82 84 86 87 87 88 87 86 85 85 83 79 77 74 70 64 54 44 43 46 46 47 48 47 49 50 44 35 28 26 24
52 51 56 62 61 57 56 58 61 67 69 65 62 60 60 64 67 69 70 65 60 60 57 50 46 44 40 37 39 41 45 49 50 49 47 47 47 49 53 57 59 62 69 76 80 77 75 76 76 76 76 76 77 78 78 78 81 82 84 85 85 84 82 80 78 76 75 74 71 67 60 48 43 46 45 45 47 47 49 50 46 38 32 30 29
52 52 54 58 58 57 58 59 61 66 69 66 65 63 62 66 69 72 75 71 64 61 58 55 52 52 51 47 43 44 46 49 52 52 51 50 50 49 50 53 58 62 65 71 80 83 80 77 77 78 79 78 79 81 81 80 80 80 81 82 82 82 81 79 76 74 74 74 71 69 64 53 45 46 46 46 47 48 49 51 47 41 35 34 35
51 53 53 56 59 57 58 60 60 63 66 65 65 65 65 68 71 74 76 75 69 65 63 60 54 53 59 57 52 51 52 53 55 55 54 54 54 55 54 53 55 59 64 70 78 85 87 82 79 79 80 82 82 81 81 82 83 83 82 82 82 81 81 79 76 74 74 74 73 71 66 57 49 49 50 50 51 50 52 54 52 46 41 39 41
52 55 56 58 59 57 58 61 60 62 66 65 64 66 69 71 72 74 76 77 76 71 68 67 59 54 58 58 56 57 59 60 61 60 59 58 58 59 59 57 57 58 62 69 77 85 90 89 85 81 81 83 84 82 82 83 85 86 86 85 84 83 81 79 77 75 74 74 74 73 69 61 55 54 55 54 54 54 54 55 53 50 47 46 48
56 60 61 60 58 57 59 60 60 63 67 66 66 67 70 74 77 79 79 81 82 78 74 72 65 57 57 56 56 60 64 66 67 67 66 64 63 63 63 61 60 61 63 68 75 82 89 92 92 89 85 85 86 84 84 86 87 88 88 87 86 84 83 81 80 78 76 74 75 75 71 65 60 59 59 59 60 60 59 59 56 52 49 49 52
62 62 61 58 56 56 58 59 62 66 69 69 70 70 72 74 78 85 87 86 87 86 82 77 68 60 58 56 55 63 71 72 71 70 69 68 67 66 67 67 65 64 67 72 78 82 86 90 94 95 92 88 88 88 89 91 90 90 90 89 88 87 86 85 84 82 79 77 77 77 74 69 65 64 64 65 66 66 66 67 64 58 55 54 56
67 62 58 57 56 56 57 59 62 67 69 71 72 72 76 77 79 86 92 92 92 92 89 82 70 63 62 60 59 68 77 77 75 72 69 69 69 68 68 70 70 69 71 76 82 85 86 87 90 93 94 91 89 91 94 96 96 95 94 93 92 91 90 89 87 85 83 80 79 78 75 70 68 68 69 71 72 73 74 73 69 64 63 64 66
66 61 57 58 59 60 61 62 65 67 68 72 75 77 81 82 82 89 95 96 96 94 94 88 75 67 67 62 62 73 82 82 79 76 72 70 69 68 69 71 72 74 77 79 85 90 91 88 87 89 91 92 91 93 95 98 100 99 99 98 96 95 94 93 91 89 87 84 82 81 78 74 73 73 74 76 76 77 79 76 72 69 69 72 75
64 62 62 63 64 65 66 68 71 72 72 75 80 84 87 86 85 93 99 97 94 92 95 93 81 73 70 63 63 74 84 85 82 79 77 74 71 69 70 72 74 77 82 84 87 91 92 90 88 87 88 90 91 93 96 99 100 100 100 100 99 99 98 97 96 95 91 88 86 85 82 79 78 79 80 79 80 81 82 78 74 73 74 77 81
66 66 66 68 71 72 74 75 77 80 81 81 83 87 89 88 90 99 101 94 89 89 93 94 86 77 70 63 64 76 84 85 83 81 79 77 76 74 72 73 77 80 86 90 91 93 93 91 90 88 86 87 88 92 96 99 100 100 100 100 98 99 100 99 99 99 97 95 93 91 89 87 85 85 82 81 82 84 83 79 76 76 77 80 84
70 72 70 72 75 78 83 85 87 91 88 83 82 84 87 93 98 100 93 86 90 95 95 93 86 76 69 65 68 79 86 86 83 80 79 79 80 79 76 76 79 83 88 92 93 94 94 93 91 89 88 86 86 90 96 98 100 100 100 99 97 98 101 100 99 100 99 99 99 98 98 96 92 88 84 84 87 87 86 83 81 80 82 83 86
73 76 74 76 80 82 88 93 95 95 86 80 87 91 93 99 99 87 78 83 95 101 98 91 82 73 69 68 73 83 89 88 84 80 80 83 85 85 82 82 83 85 89 93 94 94 94 94 93 90 89 88 86 88 94 97 100 100 99 100 99 99 100 99 99 100 100 100 101 101 100 97 92 89 89 91 94 92 90 88 86 85 87 89 91
76 79 79 84 89 89 93 98 98 94 87 86 92 94 96 101 93 80 81 93 101 100 95 89 80 74 71 72 79 89 92 89 85 82 84 89 91 91 89 88 89 90 92 95 96 95 94 94 94 92 91 90 87 89 93 97 100 99 99 100 100 100 101 100 100 101 100 100 101 99 97 95 93 93 96 99 99 97 94 92 91 91 93 95 96
79 82 87 94 96 94 98 101 98 97 97 94 89 83 89 99 96 90 96 101 100 96 95 93 85 77 75 79 87 94 93 89 85 83 88 94 96 96 95 94 94 95 97 98 98 97 96 95 94 93 93 93 90 90 93 97 99 98 98 100 101 100 100 100 99 100 100 99 100 98 97 97 97 98 100 101 100 98 96 95 96 98 100 98 95
87 91 95 98 97 96 100 101 100 101 99 96 93 90 93 100 100 99 100 100 98 95 94 95 89 80 80 88 95 97 93 89 85 85 91 97 99 100 100 97 97 98 98 99 99 98 98 97 96 95 95 95 94 92 95 98 99 99 98 100 101 100 100 98 96 96 96 96 97 99 98 98 99 100 100 100 100 99 99 100 100 98 94 89 84
98 97 93 93 96 98 101 101 101 99 92 90 97 100 100 101 100 100 101 100 97 92 91 93 91 86 88 94 98 98 93 88 85 87 94 98 100 102 102 98 98 99 98 98 98 98 98 98 96 96 96 97 96 95 97 99 100 100 100 100 100 100 100 99 98 97 95 94 95 98 99 100 101 101 100 101 100 98 95 93 90 86 81 79 79
88 85 88 95 99 100 102 101 99 100 97 96 100 101 101 101 100 101 101 97 91 89 92 93 91 89 93 97 97 96 91 87 86 88 95 98 99 102 102 99 99 99 98 97 96 97 98 97 95 96 97 98 98 97 99 100 100 100 100 100 101 101 100 100 100 100 99 97 97 98 98 99 99 98 97 94 91 91 90 83 78 77 79 81 84
78 86 95 99 97 97 101 102 101 102 97 93 96 99 101 101 100 98 95 91 91 95 96 93 90 91 95 96 96 93 89 86 85 89 95 98 98 101 102 99 98 99 98 97 96 97 98 98 96 96 96 97 99 99 100 101 100 100 100 99 100 100 100 100 100 100 101 100 100 98 98 98 97 94 91 86 84 90 95 91 84 82 85 88 89
91 99 98 93 94 99 101 102 100 94 86 88 96 99 97 96 94 94 94 95 98 99 95 92 94 96 97 96 94 90 87 85 85 91 98 99 98 101 101 98 98 99 99 99 98 98 99 99 99 99 98 98 100 100 100 100 100 100 101 100 100 100 100 100 100 100 100 100 100 100 99 100 100 95 89 88 92 97 100 100 97 94 92 95 94
100 101 94 88 90 96 99 98 92 85 84 93 99 96 93 93 92 93 97 98 96 94 95 97 100 99 96 93 89 86 85 84 87 94 101 100 98 100 101 99 97 98 99 100 101 100 100 100 100 100 100 100 100 99 100 100 100 100 101 100 100 100 99 98 99 100 101 100 100 101 100 101 102 97 91 92 99 101 99 100 100 99 98 99 98
101 99 91 83 85 94 98 93 86 86 92 99 97 93 94 96 96 97 98 96 94 96 101 103 101 95 90 86 84 83 83 84 87 95 102 103 99 99 101 100 98 97 97 99 99 99 99 98 98 99 99 100 100 100 100 100 100 100 100 99 100 101 99 99 100 100 101 100 100 101 101 101 101 99 97 98 100 100 100 101 101 100 100 100 99
102 99 96 94 96 101 99 93 91 94 99 99 95 94 96 97 99 100 98 97 100 103 104 100 93 85 80 78 80 82 84 86 89 95 102 104 102 101 101 101 100 99 98 97 96 96 96 95 95 95 95 95 96 97 98 100 100 100 100 100 101 101 99 100 100 100 100 101 100 100 100 100 99 100 101 101 100 100 100 100 98 99 102 101 100
100 98 102 102 101 100 98 99 100 99 100 99 97 96 98 99 100 100 99 101 103 102 98 91 82 75 72 72 76 81 86 88 90 94 100 103 104 104 103 101 101 99 97 96 96 95 96 97 97 96 94 93 92 92 94 97 99 99 100 100 102 102 100 100 100 100 100 100 100 101 100 97 94 96 100 101 101 101 100 95 90 90 93 97 100
94 96 101 101 101 102 102 102 101 99 100 101 99 99 101 100 98 99 101 102 99 93 88 81 73 69 68 69 72 79 85 88 89 92 98 101 102 104 103 102 102 101 98 96 95 95 97 98 98 98 97 94 92 91 93 94 95 95 95 97 98 100 101 101 100 100 100 100 99 101 100 94 87 89 95 96 95 95 93 88 84 81 79 84 92
89 97 102 100 101 103 102 101 100 100 101 100 100 102 102 100 100 101 99 97 93 87 82 76 70 66 66 68 70 75 81 86 88 89 92 95 98 101 103 102 102 101 100 99 98 97 98 98 97 96 95 94 92 90 89 88 88 90 91 93 94 95 96 99 100 100 101 101 100 100 100 96 89 87 92 94 91 87 83 80 80 80 78 79 84
92 100 102 101 102 102 101 101 101 101 100 100 101 103 103 101 101 100 97 95 92 87 82 76 70 66 64 65 68 71 75 80 83 85 87 89 91 94 99 102 102 100 98 99 101 101 100 99 99 98 96 95 93 90 87 83 81 81 83 85 88 90 90 91 93 95 97 99 100 101 101 99 94 90 93 96 92 88 85 82 82 85 88 90 90
Wind_Speed
30 33 30 23 16 11 8 7 8 12 15 18 22 25 29 33 36 39 42 44 45 45 45 46 47 48 47 49 50 47 46 46 43 42 42 41 37 31 31 33 33 32 29 27 26 26 25 25 23 23 24 25 27 27 28 28 27 26 25 25 25 24 24 24 23 22 19 18 17 17 16 15 15 16 16 15 15 14 15 15 15 16 16 16 16
32 37 36 33 26 18 10 6 5 8 10 13 18 22 26 29 33 38 40 42 45 45 45 47 48 47 46 46 46 47 47 47 45 41 41 44 41 37 38 37 35 34 33 30 27 27 27 27 25 24 24 25 27 28 29 29 28 27 27 26 26 25 25 25 24 22 20 19 18 16 16 16 17 17 17 17 17 16 15 16 16 16 17 17 17
31 36 39 39 35 29 21 13 9 8 7 7 11 17 23 25 28 35 39 40 42 43 44 47 48 46 45 45 44 46 47 46 45 42 42 47 46 43 42 40 37 36 35 32 29 28 29 29 27 26 25 26 27 29 30 30 29 29 28 28 28 27 27 26 25 23 21 19 16 14 13 14 15 18 19 18 17 16 16 16 16 17 17 17 17
29 32 37 41 40 37 32 25 17 11 7 4 5 8 15 22 25 30 35 38 39 41 43 45 47 46 46 47 46 46 47 46 48 47 46 49 49 47 44 42 40 38 37 36 33 30 30 30 30 29 27 27 28 29 31 32 32 32 31 30 30 29 29 28 27 25 23 20 16 11 11 11 10 15 20 19 17 16 16 16 16 17 17 17 18
26 29 34 39 42 41 37 32 26 19 13 8 6 6 7 13 21 25 29 34 37 38 41 43 45 46 46 48 48 48 47 47 48 48 49 50 50 50 47 44 42 40 39 39 36 34 33 32 32 32 30 29 29 30 31 32 33 33 33 32 32 31 31 30 29 27 26 25 19 12 11 10 10 14 16 15 17 17 16 17 17 18 18 18 19
24 27 31 37 40 42 41 37 33 28 22 16 10 9 10 10 14 18 19 26 33 36 39 40 42 45 47 48 48 48 48 48 49 49 48 48 49 52 51 48 46 43 41 41 40 38 36 35 35 34 33 31 31 31 31 32 33 33 33 34 34 33 32 33 31 29 28 28 25 22 18 13 12 16 13 11 15 17 17 18 18 19 20 20 21
24 27 31 36 40 42 43 42 38 33 28 22 16 9 11 13 14 14 12 15 24 30 34 37 41 43 45 47 48 48 49 49 48 49 50 47 47 51 53 51 49 47 44 43 43 42 38 37 37 36 35 34 33 32 32 32 32 33 34 35 35 35 35 36 33 31 30 29 28 29 28 22 17 16 14 12 12 15 18 19 20 21 22 22 22
23 27 31 35 39 41 42 41 40 37 33 28 23 17 10 10 13 17 16 12 14 21 27 32 38 42 44 46 47 48 49 49 48 47 49 48 45 48 52 53 52 51 48 46 46 45 42 40 39 38 38 37 35 34 34 33 32 33 35 36 36 36 37 37 35 34 33 30 29 29 30 30 26 22 19 16 11 12 17 21 21 22 23 23 24
22 26 31 33 35 38 39 38 38 37 36 34 29 25 18 11 9 14 18 17 13 15 19 23 28 34 40 44 47 49 47 47 46 46 48 48 46 47 50 53 54 54 52 51 50 48 46 43 41 40 40 39 38 37 35 34 34 34 35 36 38 39 39 39 37 37 35 32 31 30 29 30 31 29 27 23 17 12 14 20 23 23 24 25 26
21 25 31 34 34 36 37 37 37 36 35 34 32 30 25 19 13 8 12 17 17 16 16 18 22 26 29 33 38 44 46 45 45 45 46 47 47 48 48 50 53 55 56 54 52 50 48 47 46 44 41 40 40 39 38 37 36 36 36 36 38 39 41 40 39 38 36 34 34 32 30 30 32 32 31 28 26 20 15 18 23 24 25 27 27
21 23 29 35 36 36 37 37 37 36 35 34 33 33 30 26 22 16 10 11 16 18 18 18 19 22 25 26 27 30 36 41 44 46 47 48 49 49 48 49 51 54 55 55 56 54 51 50 50 46 44 42 41 41 41 40 39 38 37 37 38 40 41 41 41 40 38 37 36 34 32 32 32 32 30 28 28 26 20 18 22 24 24 26 27
22 22 27 35 38 38 39 38 38 37 35 35 35 33 32 30 27 23 19 13 11 15 19 21 20 20 22 26 28 27 27 30 34 38 42 46 49 50 49 50 51 51 51 53 55 56 54 54 53 51 50 47 42 41 42 42 41 40 40 40 40 41 42 42 43 42 41 39 38 36 34 34 34 32 30 29 27 25 21 19 22 25 23 25 28
22 20 22 30 36 36 36 35 36 37 37 37 36 35 34 32 29 26 23 20 16 12 13 17 20 22 22 23 26 29 30 30 30 29 30 34 39 43 47 49 51 51 52 52 52 53 54 55 55 55 54 51 46 43 43 43 43 43 42 42 42 42 42 44 45 44 43 41 39 37 35 35 35 34 33 33 28 25 22 18 20 25 24 24 29
20 19 17 23 29 30 30 30 31 36 39 39 38 37 37 35 33 30 26 23 19 17 14 12 14 18 20 21 22 25 28 31 33 33 31 30 30 33 38 42 47 49 50 52 51 52 55 57 58 58 56 53 50 46 44 44 45 45 45 45 44 43 43 44 45 45 44 42 40 39 37 36 36 36 35 35 31 29 27 22 22 26 23 21 27
20 20 17 18 22 24 27 30 32 36 38 39 40 40 40 40 38 35 31 27 23 20 17 15 12 12 15 18 20 22 25 27 30 33 34 35 34 32 33 35 39 43 46 48 49 50 53 55 58 60 58 57 55 52 48 47 46 46 48 47 46 45 45 45 45 46 46 45 42 41 39 38 38 38 37 35 33 32 30 26 26 28 24 21 24
20 20 19 18 19 21 23 25 29 33 35 35 37 40 41 42 42 39 35 31 28 25 22 19 15 13 12 13 16 19 21 24 27 29 30 33 35 37 37 36 35 37 40 43 45 46 47 50 53 56 58 60 60 58 55 53 52 50 49 49 49 48 47 46 45 46 47 46 44 42 41 40 39 39 38 35 33 33 32 29 30 31 28 25 23
18 18 18 19 20 22 23 24 26 30 33 35 35 36 38 39 41 41 40 36 31 29 27 24 21 17 14 12 13 14 17 20 23 26 28 29 31 34 37 38 38 36 35 38 41 43 44 46 48 50 53 57 60 60 59 59 58 55 52 51 50 49 48 48 47 47 48 47 46 45 43 42 40 40 39 36 35 34 33 31 32 32 30 28 25
18 17 16 17 19 21 24 24 24 25 27 30 32 35 37 37 39 40 41 40 37 33 30 29 26 23 19 16 14 13 14 15 18 22 25 27 29 30 32 35 38 38 36 35 36 39 42 43 45 46 48 51 55 58 59 60 60 58 56 55 53 51 50 49 49 49 48 48 48 47 45 43 42 41 40 37 36 35 33 32 33 32 31 30 28
19 18 16 16 17 20 23 26 28 28 28 26 27 31 36 38 39 38 38 39 39 37 34 32 30 27 24 21 18 16 14 14 15 17 20 23 26 28 30 32 34 37 38 38 36 36 38 41 43 44 45 46 49 53 55 58 61 61 59 58 57 55 54 52 52 51 50 49 49 49 47 46 44 43 41 39 38 36 34 33 33 32 32 32 31
18 19 16 14 15 18 21 24 27 30 32 30 27 30 34 37 38 37 36 38 39 39 38 35 33 31 27 25 22 19 17 16 15 15 17 18 21 23 27 30 32 34 36 39 40 39 37 38 40 42 44 45 46 48 51 54 57 59 59 60 60 59 57 55 54 54 52 51 51 51 50 48 47 45 43 42 39 38 36 34 34 33 33 33 33
20 21 18 15 16 18 20 23 24 26 29 30 29 30 33 35 35 33 34 37 40 40 40 38 36 34 30 27 25 23 21 19 18 17 17 17 18 20 22 25 29 32 34 36 38 40 40 39 38 39 41 43 45 46 48 50 52 54 56 59 60 60 60 58 57 56 55 53 52 53 52 51 49 47 45 43 41 39 37 36 35 34 35 35 34
21 23 20 16 17 19 22 26 27 27 29 29 29 30 32 34 32 29 30 36 39 40 40 40 38 36 33 30 27 25 23 22 20 19 18 18 18 19 20 22 25 28 31 34 35 37 38 39 39 38 38 40 42 44 45 47 49 51 53 56 59 61 61 60 60 59 58 56 54 54 53 52 50 48 46 45 42 40 38 37 37 36 36 36 35
20 23 19 15 16 19 22 27 29 29 30 30 30 31 32 33 32 29 29 33 38 40 40 40 39 38 36 33 29 26 24 23 22 21 20 20 20 20 20 21 23 25 27 31 34 36 36 36 38 39 38 38 40 42 43 45 47 49 51 54 57 58 59 60 62 61 60 59 57 55 54 54 52 49 48 46 43 41 39 38 38 37 36 36 36
21 23 19 15 17 19 21 26 27 27 28 29 30 32 33 33 33 31 31 32 36 39 40 40 39 38 37 36 33 29 26 24 23 23 23 22 22 22 22 22 22 23 25 27 31 34 35 36 37 38 39 38 39 40 42 44 46 48 50 52 55 56 57 59 61 61 61 60 59 57 56 55 54 51 49 48 45 43 41 39 38 36 36 37 35
22 24 21 17 18 19 21 25 27 26 26 27 29 31 32 33 33 33 34 35 36 38 39 41 41 39 38 36 35 33 30 27 24 24 24 24 24 24 24 24 23 23 24 24 27 30 33 35 37 38 38 38 39 39 40 42 43 46 48 50 52 54 56 58 58 59 60 60 60 59 57 57 56 53 51 50 48 45 42 40 39 37 37 37 35
23 24 23 19 18 18 20 25 27 26 26 27 29 30 32 32 33 34 34 36 38 38 39 41 41 41 40 38 35 34 32 30 27 26 25 24 24 25 25 25 25 25 25 25 25 27 30 33 36 38 38 38 38 38 39 40 40 43 45 47 49 51 53 55 56 57 58 60 61 60 58 58 57 55 54 53 50 46 44 42 40 39 38 37 36
23 23 23 21 18 18 21 25 27 27 26 27 28 30 33 34 34 34 34 36 38 39 40 41 41 41 40 39 37 34 32 31 30 28 27 25 24 25 26 26 26 27 27 27 26 27 28 31 34 36 37 37 37 37 38 38 40 41 42 44 46 48 51 53 54 55 57 59 60 59 58 58 58 56 54 53 49 46 44 42 40 39 38 37 36
24 24 24 21 19 22 27 28 29 28 28 29 29 30 33 34 35 36 36 37 39 39 39 40 41 41 39 39 40 36 32 31 30 29 28 27 25 25 25 27 27 28 28 28 28 27 28 30 32 34 36 36 36 37 37 38 39 40 41 42 45 47 50 52 53 54 56 58 58 58 58 59 58 56 54 51 48 45 43 42 40 38 37 37 36
26 25 23 21 24 29 31 30 31 30 29 30 31 31 32 33 36 37 38 38 39 39 39 39 41 42 40 40 41 37 32 29 29 29 28 27 27 26 25 26 27 28 29 29 29 29 29 30 31 33 35 35 36 37 37 37 38 39 40 42 44 47 49 50 51 53 55 56 57 58 59 59 58 55 52 50 47 44 42 41 40 39 38 37 36
24 21 21 24 28 32 31 31 32 32 31 31 31 32 31 32 34 34 36 39 38 38 39 39 40 41 41 41 41 37 32 29 27 28 28 28 28 27 27 27 27 28 29 29 29 30 31 31 31 32 34 35 36 37 36 36 36 38 40 41 43 45 47 49 51 53 55 55 56 57 58 59 58 54 50 48 44 42 40 39 38 37 37 38 37
21 22 24 27 29 30 30 32 32 32 32 33 32 32 31 31 30 28 30 37 38 38 39 39 39 41 41 42 41 37 33 30 28 28 28 28 28 28 27 27 27 28 28 28 29 30 31 31 31 31 33 35 36 36 35 34 34 36 37 39 41 43 45 48 50 52 53 54 55 56 58 58 56 52 48 45 42 40 39 37 35 34 34 35 36
21 25 27 27 29 30 30 32 32 32 33 33 33 33 32 32 31 26 26 35 38 37 38 38 39 41 41 41 41 37 33 31 29 28 28 28 28 28 28 27 26 26 27 28 29 29 30 30 30 31 32 34 35 34 33 32 32 33 35 38 40 42 44 47 49 50 51 52 53 55 56 56 53 50 47 44 41 39 38 36 35 33 33 33 34
24 27 27 27 28 29 30 31 32 33 33 33 33 33 31 32 31 24 25 35 38 37 38 38 39 40 40 41 40 36 34 33 31 29 27 27 27 28 28 27 26 25 25 27 28 28 29 29 29 29 30 31 33 32 31 30 30 31 33 36 38 40 43 45 47 48 49 50 52 53 54 52 50 47 45 43 41 40 39 37 35 34 34 34 34
27 27 27 27 28 29 30 32 32 33 34 34 33 31 29 31 28 22 27 36 37 37 38 38 39 40 40 40 39 36 34 33 32 30 28 27 26 27 27 27 26 25 25 26 27 27 28 28 27 27 27 28 30 29 28 27 27 28 31 34 36 37 40 43 45 47 48 49 50 50 50 49 47 45 43 42 41 40 39 39 37 37 37 36 35
30 30 29 27 27 29 30 31 32 31 33 35 35 32 30 29 27 25 31 36 36 37 38 37 38 39 39 40 39 36 34 33 32 31 29 28 26 26 26 26 25 25 25 26 26 26 26 26 25 24 24 26 27 26 24 23 24 25 28 32 34 34 37 40 43 44 46 46 46 45 44 43 42 42 41 40 40 40 40 40 40 40 40 38 37
36 35 32 29 29 29 29 29 28 28 33 37 36 35 32 30 30 31 34 36 36 37 37 36 37 37 38 40 38 35 34 33 32 31 30 29 27 26 25 24 24 25 25 25 25 25 24 24 23 22 22 24 24 22 21 20 21 22 25 30 33 33 34 38 40 40 41 40 40 39 38 38 38 38 38 39 40 40 40 41 41 41 40 39 37
39 36 34 30 28 29 28 27 25 27 34 37 34 33 32 32 33 34 35 36 35 35 35 35 35 36 38 39 37 34 33 32 31 31 30 29 28 26 25 24 24 25 25 25 24 24 23 23 22 20 20 21 21 19 17 17 18 20 24 30 32 31 32 34 35 35 35 35 34 34 34 35 35 36 36 36 38 40 40 41 41 41 40 38 37
38 36 32 27 25 28 27 25 26 29 32 32 32 33 35 35 37 38 37 34 33 32 32 32 34 36 38 37 34 32 32 31 30 30 29 28 27 26 25 23 23 24 25 24 23 22 21 21 20 19 18 19 19 16 15 16 17 19 25 31 31 29 29 31 32 32 32 32 32 31 32 32 33 33 33 34 36 38 40 40 40 39 38 38 37
36 32 27 24 26 29 27 25 28 28 27 30 35 39 39 39 39 38 34 31 30 30 30 31 33 36 36 34 32 31 30 30 29 28 27 26 26 25 24 23 22 22 23 22 21 20 19 18 18 17 16 16 16 14 13 15 16 19 25 30 30 29 28 29 29 30 30 30 30 30 30 31 31 30 31 32 34 36 37 38 38 37 37 38 37
31 26 25 28 29 30 29 28 27 26 29 34 37 38 37 36 35 33 31 29 30 30 30 31 33 35 34 32 31 30 29 28 27 27 26 25 24 24 22 21 20 20 20 19 18 18 17 16 15 14 14 14 14 13 13 14 15 19 24 28 29 28 27 27 27 28 29 29 29 29 30 30 30 29 30 31 33 35 36 36 36 37 38 38 35
27 28 32 34 31 29 30 28 26 30 36 38 36 33 33 33 32 30 28 29 31 32 32 32 33 34 33 31 29 28 28 27 26 25 24 23 22 22 21 19 17 17 16 16 15 15 15 14 13 12 12 12 12 12 12 14 16 19 22 25 26 25 25 26 26 26 28 29 30 31 31 31 30 30 30 31 32 33 34 35 35 37 36 34 31
35 38 36 31 28 27 28 29 30 34 36 35 34 34 33 31 29 28 30 34 36 35 33 32 32 33 31 29 28 27 26 26 25 24 23 22 21 20 19 17 15 14 14 13 12 12 12 12 11 11 11 11 11 12 13 15 19 21 21 22 25 26 26 27 27 27 27 28 29 30 31 31 30 30 30 30 31 31 31 33 34 33 31 30 29
39 34 29 28 30 31 30 31 33 35 35 36 35 33 29 27 28 31 35 36 33 30 30 31 32 32 29 28 28 27 26 25 24 23 22 20 19 19 18 15 13 12 11 10 10 9 9 10 10 10 10 10 10 11 13 16 19 22 22 18 18 20 23 24 25 26 27 27 27 27 26 26 26 26 26 28 29 29 28 28 29 28 27 26 27
30 26 30 35 37 34 33 33 35 38 40 38 31 27 27 29 31 31 30 28 26 27 30 31 31 29 28 27 27 26 25 24 22 21 20 19 18 18 16 14 11 10 9 8 9 8 8 9 9 9 8 8 9 11 13 16 19 22 23 18 11 11 16 18 20 22 24 25 25 25 23 23 23 23 22 23 25 26 26 24 23 23 23 23 24
30 33 38 40 39 36 36 38 39 41 40 33 26 26 28 28 26 24 23 24 26 28 29 29 29 29 28 26 25 24 23 22 20 19 19 18 17 16 16 14 11 9 8 7 8 8 8 8 9 9 8 8 8 10 12 15 17 19 23 22 15 10 12 15 16 18 21 23 22 22 21 22 24 23 21 21 22 23 24 23 22 21 22 23 24
35 38 39 40 40 38 39 41 42 39 34 29 27 26 25 24 23 23 23 26 27 27 28 29 28 27 25 24 23 22 21 19 18 18 17 17 16 16 15 14 12 10 9 8 8 8 7 7 8 8 8 8 8 10 11 14 17 18 20 23 21 15 12 14 15 16 18 19 19 19 21 23 25 25 23 23 24 25 25 25 24 23 23 24 24
33 36 37 36 36 36 39 42 40 34 29 27 27 25 22 22 22 23 25 26 26 27 28 28 26 24 23 21 21 20 19 18 18 17 16 16 15 15 15 14 13 12 11 10 10 10 9 9 9 9 9 9 9 11 12 13 16 18 19 21 24 22 19 16 16 16 16 16 17 19 21 22 24 26 26 26 28 29 29 30 29 28 27 27 28
33 36 35 32 34 38 39 36 32 30 28 27 25 23 22 21 22 25 26 26 26 26 26 24 23 22 21 20 19 18 18 17 17 17 16 16 15 14 14 14 14 13 13 12 12 11 11 11 11 11 12 12 12 13 13 14 16 18 19 20 23 26 25 21 17 16 17 17 18 18 19 22 24 26 28 29 30 30 30 31 32 32 32 33 33
39 39 34 33 35 36 33 29 28 28 26 24 24 23 22 23 24 25 25 25 25 25 23 23 22 21 20 19 18 17 17 17 17 16 16 15 15 14 14 14 13 14 13 13 13 12 12 12 12 12 13 14 14 14 14 15 17 18 20 21 23 26 29 27 22 18 16 17 19 20 21 22 23 25 27 28 29 30 30 30 31 32 33 34 35
42 36 32 35 36 32 27 26 27 26 24 23 25 25 24 24 24 23 23 23 24 24 23 22 21 20 19 19 17 17 16 16 16 16 16 15 14 14 14 14 14 13 13 13 13 12 12 12 12 12 12 12 13 13 14 15 16 17 19 21 22 24 27 29 28 26 22 19 19 22 24 24 23 23 25 26 26 27 28 28 29 29 30 31 32
37 30 32 36 33 28 26 26 25 24 24 25 26 25 25 24 23 22 23 23 23 23 23 22 21 20 19 18 17 17 16 15 15 16 16 16 15 13 13 13 14 14 13 12 11 10 10 11 11 11 11 11 11 12 12 13 13 14 15 17 19 21 23 25 27 29 28 26 24 24 25 26 25 25 26 27 27 26 26 27 27 27 27 27 27
Wind_Direction
23 30 28 21 3 327 293 279 291 289 270 253 243 238 235 239 247 244 239 240 239 238 237 234 233 232 233 234 232 233 235 233 233 236 237 233 228 228 232 236 236 233 230 231 234 234 234 233 231 229 228 227 227 227 226 225 222 221 219 216 215 213 213 214 215 216 218 221 226 229 233 234 233 230 230 234 237 241 243 242 241 237 234 233 232
26 33 33 32 27 16 353 326 328 317 295 273 255 244 240 239 246 247 242 240 239 240 239 236 237 238 238 241 241 239 238 238 238 239 243 239 232 230 231 230 232 234 230 228 232 236 235 235 234 232 232 232 230 228 228 227 226 225 223 220 219 218 219 220 220 220 220 225 228 231 237 237 235 233 233 237 239 242 243 240 238 236 233 232 231
24 30 34 36 34 31 24 10 355 338 325 304 280 260 249 244 246 246 243 243 242 241 239 237 240 243 244 245 246 246 244 243 243 242 245 243 234 231 232 229 230 234 233 228 229 236 239 237 237 235 235 235 233 231 229 227 226 226 225 224 223 221 223 223 223 223 222 223 223 228 236 235 236 239 236 238 240 239 237 234 233 233 232 230 230
23 26 32 37 38 36 34 28 17 357 339 326 309 288 262 253 253 251 245 243 244 243 240 240 243 245 246 244 241 241 242 243 243 240 240 241 236 231 231 232 230 232 235 231 227 233 239 239 239 237 236 237 235 234 232 229 227 226 225 225 225 224 225 225 224 223 220 217 213 211 219 219 225 237 236 236 236 233 231 230 230 230 230 230 230
24 25 28 35 39 39 38 35 30 22 8 347 321 306 282 259 254 256 254 245 243 244 244 244 245 244 242 239 236 236 238 238 239 239 239 241 238 233 232 233 232 231 233 232 229 230 236 239 239 238 238 238 237 236 236 234 231 229 227 226 226 226 228 229 228 225 224 221 213 202 206 209 216 228 231 231 231 228 227 227 226 228 229 229 231
25 27 29 35 39 41 42 40 36 33 27 15 345 297 280 271 253 255 260 249 243 244 245 244 242 241 240 240 239 239 240 239 239 240 243 247 246 238 233 233 232 230 232 234 232 228 231 237 239 239 238 237 238 238 238 237 235 233 231 229 229 228 229 232 231 229 229 227 221 218 217 210 215 224 218 216 227 228 228 228 226 227 229 230 232
23 26 30 35 39 41 42 42 41 38 34 29 17 339 286 277 267 264 269 254 244 243 245 246 244 242 241 242 245 246 247 248 248 248 249 252 253 243 234 233 233 231 231 234 234 229 229 235 238 239 239 238 238 238 239 239 237 236 233 232 232 230 231 232 233 232 232 231 228 229 229 223 223 225 214 208 220 227 230 230 229 229 229 230 232
23 24 27 32 36 39 40 42 43 42 39 35 30 22 350 299 278 276 284 277 250 239 239 243 246 246 245 244 246 248 250 252 254 257 256 254 253 246 238 236 236 233 231 232 234 231 229 232 236 237 239 239 239 238 240 242 241 239 235 234 233 233 233 233 234 235 234 234 233 233 234 232 232 232 227 224 222 225 232 233 231 232 230 229 231
25 26 27 29 32 34 37 39 41 42 41 40 37 32 24 3 311 279 282 290 282 257 242 239 242 244 246 246 246 248 251 252 254 256 257 255 254 252 247 241 238 236 234 233 234 232 230 230 233 236 238 239 240 239 240 242 242 241 239 236 234 234 234 234 235 236 237 237 236 235 235 235 234 235 235 234 230 223 231 238 236 232 230 231 232
25 27 27 28 29 29 30 32 35 38 39 40 40 37 34 27 11 325 288 289 295 291 272 255 246 242 243 244 246 248 249 252 255 256 256 255 253 253 253 248 242 238 236 235 234 233 233 232 232 234 236 239 241 241 241 241 241 242 242 240 238 236 235 235 234 236 237 237 238 238 237 236 234 234 235 236 234 228 228 243 245 239 235 236 235
20 20 22 24 25 25 25 26 26 29 33 35 37 37 36 34 28 18 349 304 292 296 296 287 270 255 249 247 247 247 247 248 252 255 256 254 253 253 255 255 249 244 241 238 236 233 232 233 234 234 235 238 240 241 241 242 242 242 243 242 240 239 238 237 235 235 236 237 238 239 239 239 237 236 237 238 238 235 230 235 246 246 239 238 240
16 14 15 18 19 20 20 20 19 20 23 27 29 31 31 31 30 26 21 3 326 301 295 297 295 283 268 257 253 250 248 247 248 251 252 251 252 253 254 255 253 250 247 243 240 237 233 233 234 234 233 235 237 240 242 243 243 243 243 242 241 240 239 238 237 236 236 236 237 238 239 240 239 239 241 241 241 241 234 228 240 246 235 232 239
17 14 12 14 15 16 16 15 15 14 16 19 20 21 23 23 24 24 24 20 10 349 314 298 296 295 290 278 267 258 253 251 249 249 248 248 250 250 250 250 250 251 250 246 244 241 238 237 237 235 235 235 235 238 241 242 243 243 243 243 242 242 241 240 238 237 237 237 238 239 239 240 239 238 239 240 240 237 232 222 231 243 234 229 238
17 15 12 14 14 13 13 11 10 10 11 12 12 13 14 14 14 14 15 17 16 12 360 335 309 297 293 289 283 273 265 259 256 254 251 250 250 251 251 250 251 253 253 252 248 242 239 239 238 237 237 238 237 238 240 242 243 243 243 243 243 243 243 242 241 239 238 237 238 239 239 239 240 238 238 240 238 235 231 222 223 234 228 223 237
14 14 12 12 12 12 12 9 8 7 6 6 5 5 5 5 6 5 4 6 7 8 7 2 348 325 306 295 289 282 276 270 265 263 260 257 255 255 255 254 255 256 256 257 254 249 245 242 240 238 238 238 237 237 238 240 241 243 243 243 243 243 243 243 242 242 240 238 238 239 239 238 238 239 239 239 238 237 236 229 227 232 222 214 232
10 10 8 6 7 9 10 9 8 5 4 2 1 0 360 358 358 358 357 357 357 358 359 358 355 347 331 313 300 289 282 276 271 268 266 264 261 259 258 258 259 261 261 260 258 257 254 250 247 245 243 241 239 237 237 238 238 239 240 241 242 242 242 242 243 242 242 240 239 239 239 238 237 238 240 239 238 238 238 234 233 236 229 217 223
5 5 6 4 5 5 5 4 3 1 360 358 356 356 356 355 353 352 352 351 351 351 352 350 348 345 340 330 316 302 290 282 277 272 269 267 265 263 262 261 261 262 264 264 262 261 258 255 253 250 248 246 243 242 241 240 239 239 240 241 242 242 242 243 243 242 242 241 239 239 239 238 237 237 240 240 238 238 238 236 237 239 234 224 220
1 0 0 1 3 3 3 0 357 356 354 353 351 350 350 351 351 349 348 348 346 346 347 347 345 341 338 334 327 318 306 293 284 278 273 269 266 265 264 263 262 263 264 265 265 264 262 259 257 254 252 248 246 246 245 244 243 242 242 242 243 244 243 243 242 242 241 241 240 239 238 237 236 236 239 241 239 239 239 238 239 239 234 227 223
358 357 354 355 358 358 359 357 355 352 349 348 346 345 346 347 347 347 346 345 344 342 342 343 343 341 337 334 329 322 314 306 296 288 280 274 269 266 264 263 262 262 262 262 263 264 265 264 262 259 257 254 251 249 248 246 244 243 243 243 244 243 243 243 243 242 241 241 239 239 237 236 236 235 237 239 239 240 239 239 240 239 235 230 226
354 352 346 346 351 353 355 354 352 350 347 345 343 342 344 345 345 345 344 343 342 341 341 341 340 340 337 333 328 322 315 310 305 299 291 283 277 271 267 264 261 260 259 259 259 260 263 266 265 263 261 258 256 253 251 249 247 246 245 244 244 244 243 243 243 242 242 241 240 238 237 235 235 234 235 237 238 239 239 239 240 239 237 234 230
350 349 341 339 344 348 352 351 349 347 344 343 341 341 342 343 344 344 342 342 342 341 342 341 340 338 336 333 328 323 317 311 307 302 298 292 286 279 273 268 263 260 257 255 254 255 256 259 262 263 262 261 259 256 254 252 251 250 248 247 245 244 244 244 243 242 242 241 240 239 237 235 234 233 233 236 237 237 238 238 240 238 237 236 232
346 346 338 332 338 344 347 349 347 344 342 340 339 339 341 342 344 342 341 341 342 342 342 341 340 338 336 332 329 325 319 314 308 302 297 293 289 283 277 272 268 264 259 255 252 250 250 251 253 256 259 260 259 259 257 255 253 252 251 249 246 245 245 244 243 243 242 241 240 239 237 235 234 233 233 235 236 237 237 237 239 238 236 236 234
342 343 336 326 332 339 342 345 345 342 340 339 337 339 340 342 343 342 339 340 341 341 341 339 339 338 335 332 328 324 320 315 312 306 299 293 287 283 278 274 271 268 264 259 255 251 248 247 247 249 252 256 258 258 258 256 254 253 252 250 247 247 247 245 243 243 243 242 240 239 237 235 233 232 232 234 235 235 236 237 239 239 236 236 235
336 340 335 322 324 332 337 341 342 338 337 335 334 335 337 340 342 341 339 338 339 340 340 339 337 335 334 332 328 324 319 315 313 309 304 297 290 285 280 277 273 270 268 265 261 257 251 247 245 245 247 249 253 255 256 256 255 254 253 251 250 250 249 246 245 245 245 243 241 239 238 235 233 232 231 232 233 233 234 235 237 237 236 236 236
330 334 331 320 319 325 332 337 337 333 331 330 330 330 332 335 336 338 338 337 338 338 339 339 338 334 332 331 327 324 320 316 312 308 305 301 296 290 284 280 276 272 270 267 264 260 256 251 247 245 244 245 247 250 252 254 254 254 253 253 252 251 250 249 248 248 247 245 243 240 239 236 233 231 231 231 232 232 232 233 235 234 234 234 234
324 328 325 317 314 319 326 332 332 327 324 325 325 326 327 329 330 332 334 335 336 335 335 338 339 337 334 331 327 322 318 315 312 308 306 303 299 296 290 284 279 275 271 268 266 263 259 255 251 248 246 244 244 246 248 249 251 252 253 253 252 252 251 251 250 249 248 246 244 242 240 237 234 232 232 231 231 232 232 232 233 233 232 232 232
319 321 320 315 311 316 323 326 326 322 319 320 320 322 325 325 326 328 329 331 333 333 333 335 337 337 335 333 330 324 316 312 310 307 306 304 301 298 293 289 283 277 272 268 266 265 262 258 253 249 247 245 245 244 245 246 247 248 249 251 252 252 251 251 250 249 247 246 244 242 240 238 235 234 233 233 232 233 232 233 234 233 232 232 231
317 318 318 315 314 318 321 322 323 320 318 318 317 318 321 321 322 323 324 327 329 329 330 331 333 335 334 333 331 327 317 310 307 306 305 304 302 299 294 289 285 280 275 270 266 264 263 260 256 251 247 245 244 243 242 244 246 247 248 249 250 251 251 250 249 248 246 245 243 241 239 237 235 234 234 234 233 233 232 232 233 232 231 231 231
316 317 317 317 318 320 319 320 321 319 317 317 315 316 317 317 318 320 321 324 326 327 327 328 329 331 332 331 330 327 319 311 307 306 305 304 302 299 295 290 286 283 279 274 269 264 262 260 258 254 249 245 243 241 240 241 244 247 248 248 248 249 250 250 249 247 245 243 241 239 236 234 234 234 234 234 235 235 234 233 232 230 229 229 229
316 318 318 317 318 319 320 320 320 318 317 316 314 314 314 314 314 315 317 321 323 323 324 325 326 328 329 329 329 325 320 314 309 308 306 304 302 300 296 292 288 285 281 277 272 267 263 261 258 254 251 247 244 242 240 241 244 246 247 248 248 249 249 249 248 246 244 242 239 236 234 232 232 233 234 234 234 235 235 236 235 233 230 228 228
317 319 317 317 319 319 320 322 320 318 316 315 314 313 312 312 310 306 310 317 318 319 320 321 323 325 326 328 328 325 321 317 312 308 306 304 303 301 298 295 291 287 284 280 274 268 264 262 259 255 252 249 246 244 243 244 245 246 248 249 249 249 248 248 246 244 243 241 237 233 231 231 231 231 231 232 232 232 233 233 234 234 233 232 231
314 316 316 317 319 319 320 322 321 319 316 314 313 311 309 310 309 302 303 312 314 315 317 318 321 323 325 328 327 324 320 317 313 309 305 304 304 302 300 298 295 290 286 282 277 271 267 263 260 257 253 250 248 246 245 246 247 247 248 249 249 248 248 246 245 243 242 239 236 232 230 230 230 229 229 228 229 229 229 229 229 230 231 232 234
309 312 314 315 316 317 318 319 319 319 317 314 312 309 306 307 308 301 301 309 312 313 314 315 318 322 324 326 326 322 319 318 315 311 307 304 303 302 301 300 298 295 289 283 278 274 270 265 261 258 255 252 249 247 246 247 248 249 250 249 248 247 247 246 245 243 241 238 235 232 230 229 228 227 227 227 226 225 224 225 225 226 227 229 233
309 309 310 311 312 314 316 317 318 317 316 314 311 306 302 304 304 298 302 309 310 310 311 312 316 319 321 324 324 320 318 317 316 314 310 306 304 302 301 301 300 298 293 287 282 277 272 267 262 259 257 254 251 248 247 248 250 253 253 251 249 246 245 245 244 242 240 237 234 231 230 229 227 225 225 225 224 222 221 221 221 222 224 227 231
308 306 305 306 309 312 315 316 317 316 316 315 312 308 304 302 301 300 304 309 309 308 309 310 314 317 319 322 322 318 316 316 316 314 312 309 307 304 302 303 302 299 295 290 284 279 274 269 264 261 259 256 253 250 249 248 251 255 253 252 252 248 242 241 241 240 239 237 234 230 228 227 226 226 226 224 222 221 220 219 220 222 224 228 232
306 305 303 304 308 312 314 314 314 315 316 315 313 310 306 302 302 304 308 311 309 307 307 310 313 315 317 320 320 317 315 315 315 314 313 311 309 307 306 306 303 299 294 289 284 280 275 269 264 261 260 258 255 253 251 248 251 253 246 244 249 248 240 236 236 235 234 233 230 228 225 225 226 226 225 224 222 220 219 219 221 224 227 230 234
305 303 299 301 307 311 313 313 313 314 316 316 313 311 307 303 304 310 313 311 306 303 306 310 313 314 316 318 318 316 315 314 314 313 312 311 311 310 310 309 303 297 293 288 283 278 273 269 264 260 260 259 257 254 252 250 250 244 233 234 241 243 236 231 230 229 229 228 227 226 225 225 225 223 222 222 221 220 219 220 223 226 229 232 236
302 299 298 301 309 313 312 312 312 312 314 316 314 312 310 306 308 313 312 306 300 301 307 312 312 313 314 316 316 314 314 314 313 312 311 311 312 312 312 309 301 293 289 286 283 277 272 269 266 262 261 260 257 251 249 250 244 231 225 230 235 237 234 230 229 228 229 229 227 225 223 222 221 220 219 220 221 220 220 221 224 227 230 233 236
300 299 302 310 315 314 311 310 312 312 313 315 314 312 309 306 307 308 304 297 299 307 312 311 310 311 313 315 314 313 313 312 311 311 310 311 312 313 311 305 297 288 284 282 281 279 275 270 266 263 261 259 256 248 244 245 235 223 225 231 234 237 238 235 232 230 228 227 225 222 220 218 218 218 217 218 219 220 221 223 225 228 232 235 236
307 308 314 317 316 312 309 310 312 312 312 314 314 312 308 306 303 300 296 299 308 314 313 309 308 311 313 314 314 313 311 310 310 309 309 310 312 312 307 299 292 284 280 279 279 279 278 274 268 263 260 259 255 245 240 239 226 217 226 234 234 234 237 236 233 230 227 225 223 219 218 217 215 214 215 215 218 221 222 225 228 231 234 237 238
319 321 320 318 314 310 309 311 311 311 313 315 315 313 310 307 300 295 299 309 314 315 311 308 308 311 314 314 313 311 310 309 309 308 307 308 311 309 302 295 289 283 278 276 276 278 278 277 272 266 263 260 254 242 235 231 219 212 223 237 239 236 236 236 235 232 229 226 224 221 219 218 215 215 216 216 221 226 228 229 231 234 237 238 237
324 323 321 318 314 313 313 313 313 315 316 316 316 313 310 305 297 297 305 311 311 310 308 306 308 312 314 314 312 310 309 309 308 308 306 306 309 306 299 291 286 283 281 278 276 278 281 282 279 274 269 263 255 244 233 226 218 210 216 235 244 242 241 241 238 236 233 230 228 226 224 222 220 220 221 221 223 226 230 232 231 232 234 235 234
324 322 321 320 320 319 317 316 316 317 318 319 319 314 308 301 298 300 306 307 307 307 305 306 310 313 314 314 312 311 309 308 307 307 305 305 307 305 298 291 286 285 286 286 284 285 288 289 286 281 275 266 256 246 235 227 222 213 210 226 244 244 242 241 240 239 237 234 231 229 226 225 223 221 221 221 220 218 221 228 232 231 231 232 233
324 322 323 325 324 322 319 318 318 319 320 321 319 311 305 302 302 305 309 310 308 306 306 309 312 314 314 314 311 309 307 306 306 305 304 305 305 303 299 293 288 288 293 297 299 296 295 295 291 285 279 267 256 248 236 228 225 218 210 212 230 246 244 243 240 239 239 237 234 231 226 222 219 216 215 216 214 211 212 219 227 231 232 233 235
319 320 325 327 325 321 319 319 320 321 322 321 318 313 310 309 310 314 316 313 309 308 309 311 313 314 314 312 309 307 305 305 305 305 304 304 303 301 299 295 290 290 292 297 300 298 297 295 290 286 281 268 253 246 237 228 225 220 214 213 218 232 245 247 243 238 236 236 235 231 225 219 213 209 210 212 211 211 213 215 218 224 230 234 237
317 320 325 326 324 321 320 320 321 322 323 322 320 317 315 314 318 319 315 311 311 311 312 314 315 316 315 313 310 308 306 306 307 306 304 303 301 299 298 295 292 289 287 287 290 290 288 287 285 282 278 268 252 241 235 229 225 222 220 219 218 214 219 230 234 232 231 232 229 222 216 212 207 204 206 211 213 214 216 216 215 217 221 225 228
318 324 327 326 323 322 321 322 322 323 324 324 323 321 320 320 319 317 313 313 314 314 314 316 318 318 317 315 313 311 309 309 310 309 306 304 301 297 295 293 291 289 287 285 284 284 282 280 277 273 267 261 252 241 234 230 228 225 223 221 218 212 210 212 215 218 219 219 219 219 215 212 210 210 212 216 219 221 221 221 218 217 217 219 220
322 327 327 323 322 322 322 322 322 324 326 327 326 326 325 321 315 313 314 315 316 316 317 319 320 319 319 318 316 314 312 311 311 310 308 305 302 298 294 290 289 287 286 285 285 286 287 284 280 278 272 266 260 252 244 239 235 230 226 223 218 216 216 217 215 214 212 208 207 211 213 213 216 219 221 222 224 225 227 227 224 222 221 221 223
326 327 324 322 323 323 323 323 324 326 329 329 326 324 322 319 317 317 319 320 320 320 321 322 324 325 324 323 321 318 316 313 312 311 309 305 303 299 294 290 287 284 284 286 287 288 288 286 282 280 277 273 269 265 256 247 242 238 233 229 224 220 221 224 226 226 221 213 207 206 207 210 215 219 221 223 223 225 227 228 228 227 226 225 225
325 324 323 324 324 324 325 325 327 328 329 328 326 325 325 325 325 325 326 325 325 324 326 329 331 331 329 328 325 322 320 316 315 313 311 309 306 302 298 294 289 286 284 285 285 286 286 286 284 281 279 278 276 271 263 255 250 245 241 236 232 227 224 225 228 230 228 222 214 210 210 212 218 223 224 224 225 225 226 228 229 229 229 228 227
324 323 324 325 326 327 329 328 329 330 330 328 327 328 329 329 330 331 331 330 329 328 329 333 334 333 333 332 329 327 324 320 317 314 312 311 310 307 303 298 293 291 289 283 281 285 289 291 291 284 275 272 272 269 266 262 256 251 246 241 236 233 230 227 227 228 228 225 220 215 213 215 221 227 228 228 230 230 229 230 231 231 231 232 231